TimeCDT,TemperatureF,Dew PointF,Humidity,Sea Level PressureIn,VisibilityMPH,Wind Direction,Wind SpeedMPH,Gust SpeedMPH,PrecipitationIn,Events,Conditions,WindDirDegrees,DateUTC
12:53 AM,57.0,50.0,77,30.10,10.0,NNE,6.9,-,N/A,,Clear,20,2012-10-09 05:53:00
1:53 AM,55.9,48.9,77,30.09,10.0,NNE,6.9,-,N/A,,Clear,20,2012-10-09 06:53:00
2:53 AM,55.4,48.2,77,30.09,10.0,NNE,5.8,-,N/A,,Clear,30,2012-10-09 07:53:00
3:53 AM,55.0,48.0,77,30.09,10.0,NNE,3.5,-,N/A,,Clear,20,2012-10-09 08:53:00
4:53 AM,53.1,48.0,83,30.09,10.0,Calm,Calm,-,N/A,,Clear,0,2012-10-09 09:53:00
5:53 AM,53.1,48.0,83,30.10,10.0,North,3.5,-,N/A,,Clear,10,2012-10-09 10:53:00
6:53 AM,52.0,48.0,86,30.11,10.0,North,4.6,-,N/A,,Clear,10,2012-10-09 11:53:00
7:53 AM,55.0,48.0,77,30.12,10.0,NNE,3.5,-,N/A,,Clear,20,2012-10-09 12:53:00
8:53 AM,59.0,48.9,69,30.14,10.0,NNE,5.8,-,N/A,,Clear,20,2012-10-09 13:53:00
9:53 AM,64.9,51.1,61,30.14,10.0,Variable,3.5,-,N/A,,Clear,0,2012-10-09 14:53:00
10:53 AM,68.0,52.0,56,30.14,10.0,NNE,3.5,-,N/A,,Clear,20,2012-10-09 15:53:00
11:53 AM,72.0,55.0,55,30.12,10.0,Variable,4.6,-,N/A,,Clear,0,2012-10-09 16:53:00
12:53 PM,73.9,55.9,53,30.09,10.0,Variable,5.8,-,N/A,,Clear,0,2012-10-09 17:53:00
1:53 PM,75.9,55.0,48,30.06,10.0,NNW,5.8,-,N/A,,Clear,340,2012-10-09 18:53:00
2:53 PM,77.0,55.0,47,30.04,10.0,Variable,3.5,-,N/A,,Clear,0,2012-10-09 19:53:00
3:53 PM,75.9,59.0,56,30.03,10.0,SSE,4.6,-,N/A,,Clear,160,2012-10-09 20:53:00
4:53 PM,73.9,59.0,59,30.03,10.0,WSW,4.6,-,N/A,,Clear,240,2012-10-09 21:53:00
5:53 PM,72.0,59.0,64,30.03,10.0,South,5.8,-,N/A,,Clear,190,2012-10-09 22:53:00
6:53 PM,69.1,60.1,73,30.03,10.0,Calm,Calm,-,N/A,,Clear,0,2012-10-09 23:53:00
7:53 PM,64.9,60.1,84,30.04,10.0,Calm,Calm,-,N/A,,Clear,0,2012-10-10 00:53:00
8:53 PM,63.0,59.0,87,30.05,10.0,Calm,Calm,-,N/A,,Clear,0,2012-10-10 01:53:00
9:53 PM,63.0,59.0,87,30.06,10.0,Calm,Calm,-,N/A,,Clear,0,2012-10-10 02:53:00
10:53 PM,62.1,59.0,90,30.08,10.0,Calm,Calm,-,N/A,,Clear,0,2012-10-10 03:53:00
11:53 PM,61.0,57.9,90,30.07,10.0,Calm,Calm,-,N/A,,Clear,0,2012-10-10 04:53:00